Regional Weather Roundup
Issued by NWS

Home | Current Version | Previous Version | Graphics & Text | Print | Product List | Glossary On
Versions: 1 2 3 4 5 6 7 8 9 10 11 12 13 14 15 16 17 18 19 20 21 22 23 24 25 26 27 28 29 30 31 32 33 34 35 36 37 38 39 40 41 42 43 44 45 46 47 48 49 50
000
ASUS43 KIND 210259
RWRIN

WEATHER ROUNDUP FOR INDIANA
NATIONAL WEATHER SERVICE INDIANAPOLIS IN
1100 PM EDT WED AUG 20 2014

NOTE: "FAIR" INDICATES FEW OR NO CLOUDS BELOW 12,000 FEET WITH NO
SIGNIFICANT WEATHER AND/OR OBSTRUCTIONS TO VISIBILITY.

* - STATION DOES NOT REPORT WEATHER SUCH AS PRECIPITATION OR FOG.

+ - STATION NOT QUALITY CONTROLLED BY THE NATIONAL WEATHER SERVICE.
    USE DATA WITH CAUTION...ESPECIALLY DEWPOINT AND RELATIVE
    HUMIDITY OBSERVATIONS.

INZ001>003-010>013-019-020-210400-
NORTHWEST INDIANA

CITY           SKY/WX    TMP DP  RH WIND       PRES   REMARKS
GARY /AIRPORT/ CLEAR     77  70  78 W10       29.95R
KNOX *+        CLEAR     71  67  87 SW7       29.96R
MONTICELLO +   PTCLDY    69  67  93 CALM      29.97R
RENSSELAER +   PTCLDY    68  68 100 CALM      29.98R
VALPARAISO     PTCLDY    73  69  87 W8        29.97R

$$

LMZ046-743>745-210400-
SOUTHERN LAKE MICHIGAN

STATION/POSITION TIME  TEMP WIND        PRES
                       AIR  DIR/SP/G
                 (UTC) (F)  (DEG/KT/KT) (MB)
BURNS HARBOR     0200   79  200/  6/  8   N/A
MICHIGAN CITY    0200   78  170/  9/ 11   N/A

$$

INZ004-005-014>016-021>024-210400-
NORTH CENTRAL INDIANA

CITY           SKY/WX    TMP DP  RH WIND       PRES   REMARKS
GOSHEN         PTCLDY    73  67  81 S7        29.95R
SOUTH BEND     MOCLDY    75  66  73 SW8       29.95R
WARSAW +       CLEAR     73  70  88 CALM      29.96R

$$

INZ006>009-017-018-025>027-210400-
NORTHEAST INDIANA

CITY           SKY/WX    TMP DP  RH WIND       PRES   REMARKS
ANGOLA *+      PTCLDY    70  63  78 CALM      29.97R
FORT WAYNE     MOCLDY    71  66  84 SW8       29.98R

$$

INZ028-029-035-036-043>045-051>053-210400-
WEST CENTRAL INDIANA

CITY           SKY/WX    TMP DP  RH WIND       PRES   REMARKS
GREENCASTLE +  CLOUDY    68  68 100 CALM      30.03R
LAFAYETTE      MOCLDY    71  67  87 CALM      29.99R
TERRE HAUTE    PTCLDY    73  69  87 S6        30.01R

$$

INZ030>032-037>040-046>048-054>057-064-065-210400-
CENTRAL INDIANA

CITY           SKY/WX    TMP DP  RH WIND       PRES   REMARKS
FRANKFORT +    MOCLDY   N/A N/A N/A CALM      30.02R
INDIANAPOLIS   CLOUDY    73  68  84 S6        30.01R
-EAGLE CREEK   CLOUDY    74  67  78 CALM      30.01R
KOKOMO *+      CLEAR     70  52  52 S8        30.00R
MT COMFORT *+  MOCLDY    72  72 100 S5        30.03R
SHELBYVILLE    CLOUDY    74  69  85 S5        30.03R

$$

INZ033-034-041-042-049-050-058-059-210400-
EAST CENTRAL INDIANA

CITY           SKY/WX    TMP DP  RH WIND       PRES   REMARKS
MUNCIE         CLEAR     73  65  75 SW9       30.02R

$$

INZ060-061-067>069-081>083-085>088-210400-
SOUTHWEST INDIANA

CITY           SKY/WX    TMP DP  RH WIND       PRES   REMARKS
EVANSVILLE     MOCLDY    79  71  76 S7        30.03R

$$

INZ062-063-066-070>080-084-089>092-210400-
SOUTH CENTRAL AND SOUTHEAST INDIANA

CITY           SKY/WX    TMP DP  RH WIND       PRES   REMARKS
BLOOMINGTON    CLOUDY    71  69  93 CALM      30.04R

$$




USA.gov is the U.S. government's official web portal to all federal, state and local government web resources and services.